Private Wetterstation Wechselburg
Wetterdaten: Montag, 12.03.2018
Datum Zeit Temp. +2m Bodentemp. Temp.+5cm Temp. Wind Windchill X Diff Temp. Feuchte +2m Feuchte +5cm Luftdruck Regen Wind Richtung Richtung Sonnenschein Taupunkt Windchill Windben
12.03.2018 00:00 10,1 C 4,7 C 8,0 C 9,8 C 9,3 C 0,0 C 75 % 84 % 997,1 hPa 0,0 l/m 0,3 km/h (0 Bft) S 180 0 min 5,9 C 9,3 C 1,6 km/h (1 Bft)
12.03.2018 00:05 9,9 C 4,7 C 7,6 C 9,5 C 8,8 C 0,0 C 74 % 84 % 997,1 hPa 0,0 l/m 0,3 km/h (0 Bft) S 180 0 min 5,5 C 8,8 C 0,0 km/h (0 Bft)
12.03.2018 00:10 9,6 C 4,7 C 7,6 C 9,3 C 8,7 C 0,0 C 75 % 84 % 997,1 hPa 0,0 l/m 0,2 km/h (0 Bft) S 180 0 min 5,4 C 8,7 C 0,0 km/h (0 Bft)
12.03.2018 00:15 9,6 C 4,7 C 7,5 C 9,2 C 8,5 C 0,0 C 75 % 85 % 996,9 hPa 0,0 l/m 0,0 km/h (0 Bft) O-SO 112 0 min 5,4 C 8,5 C 0,0 km/h (0 Bft)
12.03.2018 00:20 9,4 C 4,7 C 7,0 C 9,1 C 8,5 C 0,0 C 76 % 85 % 996,9 hPa 0,0 l/m 0,0 km/h (0 Bft) O-SO 112 0 min 5,4 C 8,5 C 0,0 km/h (0 Bft)
12.03.2018 00:25 9,1 C 4,8 C 6,8 C 8,8 C 8,2 C 0,0 C 76 % 85 % 996,9 hPa 0,0 l/m 0,0 km/h (0 Bft) O-SO 112 0 min 5,1 C 8,2 C 0,0 km/h (0 Bft)
12.03.2018 00:30 9,0 C 4,8 C 6,7 C 8,7 C 8,1 C 0,0 C 76 % 85 % 996,9 hPa 0,0 l/m 0,0 km/h (0 Bft) O-SO 112 0 min 5,0 C 8,1 C 0,0 km/h (0 Bft)
12.03.2018 00:35 8,8 C 4,8 C 6,6 C 8,6 C 8,1 C 0,0 C 77 % 85 % 996,7 hPa 0,0 l/m 0,0 km/h (0 Bft) O-SO 112 0 min 5,0 C 8,1 C 0,0 km/h (0 Bft)
12.03.2018 00:40 8,6 C 4,8 C 6,5 C 8,3 C 7,8 C 0,0 C 77 % 86 % 996,7 hPa 0,0 l/m 0,0 km/h (0 Bft) O-SO 112 0 min 4,8 C 7,8 C 0,0 km/h (0 Bft)
12.03.2018 00:45 8,4 C 4,8 C 6,4 C 8,1 C 7,6 C 0,0 C 77 % 86 % 996,7 hPa 0,0 l/m 0,0 km/h (0 Bft) O-SO 112 0 min 4,6 C 7,6 C 0,0 km/h (0 Bft)
12.03.2018 00:50 8,3 C 4,8 C 6,3 C 8,0 C 7,4 C 0,0 C 78 % 86 % 996,7 hPa 0,0 l/m 0,0 km/h (0 Bft) O-SO 112 0 min 4,7 C 7,4 C 0,0 km/h (0 Bft)
12.03.2018 00:55 8,3 C 4,9 C 6,1 C 8,0 C 7,5 C 0,0 C 79 % 87 % 996,4 hPa 0,0 l/m 0,5 km/h (0 Bft) O-SO 112 0 min 4,9 C 7,5 C 2,1 km/h (1 Bft)
12.03.2018 01:00 8,1 C 4,8 C 5,9 C 7,9 C 7,6 C 0,0 C 79 % 87 % 996,4 hPa 0,0 l/m 0,6 km/h (0 Bft) O-SO 112 0 min 4,7 C 7,6 C 0,0 km/h (0 Bft)
12.03.2018 01:05 7,9 C 4,9 C 5,7 C 7,7 C 7,2 C 0,0 C 78 % 87 % 996,4 hPa 0,0 l/m 0,2 km/h (0 Bft) O-SO 112 0 min 4,3 C 7,2 C 0,0 km/h (0 Bft)
12.03.2018 01:10 7,7 C 4,8 C 5,6 C 7,4 C 6,9 C 0,0 C 79 % 87 % 996,4 hPa 0,0 l/m 0,3 km/h (0 Bft) S 180 0 min 4,3 C 6,9 C 0,0 km/h (0 Bft)
12.03.2018 01:15 7,5 C 4,8 C 5,4 C 7,1 C 6,3 C 0,0 C 79 % 87 % 996,4 hPa 0,0 l/m 0,3 km/h (0 Bft) S 180 0 min 4,1 C 6,3 C 2,9 km/h (1 Bft)
12.03.2018 01:20 7,2 C 4,9 C 5,3 C 6,8 C 6,0 C 0,0 C 79 % 87 % 996,4 hPa 0,0 l/m 0,0 km/h (0 Bft) S 180 0 min 3,8 C 6,0 C 0,0 km/h (0 Bft)
12.03.2018 01:25 6,9 C 4,8 C 4,9 C 6,5 C 5,7 C 0,0 C 79 % 87 % 996,4 hPa 0,0 l/m 0,0 km/h (0 Bft) S 180 0 min 3,5 C 5,7 C 0,0 km/h (0 Bft)
12.03.2018 01:30 6,8 C 4,9 C 4,8 C 6,4 C 5,5 C 0,0 C 79 % 88 % 996,4 hPa 0,0 l/m 0,0 km/h (0 Bft) S 180 0 min 3,4 C 5,5 C 0,0 km/h (0 Bft)
12.03.2018 01:35 6,7 C 4,9 C 4,9 C 6,3 C 5,5 C 0,0 C 80 % 88 % 996,1 hPa 0,0 l/m 0,0 km/h (0 Bft) S 180 0 min 3,5 C 5,5 C 0,0 km/h (0 Bft)
12.03.2018 01:40 6,6 C 4,9 C 4,7 C 6,2 C 5,5 C 0,0 C 80 % 88 % 996,1 hPa 0,0 l/m 0,0 km/h (0 Bft) S 180 0 min 3,4 C 5,5 C 0,0 km/h (0 Bft)
12.03.2018 01:45 6,5 C 4,8 C 4,7 C 6,2 C 5,6 C 0,0 C 81 % 88 % 996,1 hPa 0,0 l/m 0,0 km/h (0 Bft) S 180 0 min 3,5 C 5,6 C 0,0 km/h (0 Bft)
12.03.2018 01:50 6,4 C 4,9 C 4,6 C 6,1 C 5,5 C 0,0 C 81 % 88 % 996,1 hPa 0,0 l/m 0,0 km/h (0 Bft) S 180 0 min 3,4 C 5,5 C 0,0 km/h (0 Bft)
12.03.2018 01:55 6,3 C 5,0 C 4,6 C 6,0 C 5,5 C 0,0 C 81 % 89 % 996,2 hPa 0,0 l/m 0,0 km/h (0 Bft) S 180 0 min 3,3 C 5,5 C 0,0 km/h (0 Bft)
12.03.2018 02:00 6,3 C 5,0 C 4,4 C 6,0 C 5,5 C 0,0 C 82 % 89 % 996,2 hPa 0,0 l/m 0,2 km/h (0 Bft) O-SO 112 0 min 3,5 C 5,5 C 2,1 km/h (1 Bft)
12.03.2018 02:05 6,2 C 4,9 C 4,4 C 6,1 C 5,8 C 0,0 C 82 % 89 % 996,2 hPa 0,0 l/m 0,6 km/h (0 Bft) S-SW 202 0 min 3,4 C 5,8 C 3,1 km/h (1 Bft)
12.03.2018 02:10 6,1 C 4,9 C 4,4 C 5,9 C 5,6 C 0,0 C 82 % 89 % 996,2 hPa 0,0 l/m 0,6 km/h (0 Bft) S-SW 202 0 min 3,3 C 5,6 C 0,0 km/h (0 Bft)
12.03.2018 02:15 5,9 C 4,8 C 4,4 C 5,7 C 5,3 C 0,0 C 82 % 89 % 995,8 hPa 0,0 l/m 0,3 km/h (0 Bft) S-SW 202 0 min 3,1 C 5,3 C 0,0 km/h (0 Bft)
12.03.2018 02:20 5,9 C 5,0 C 4,4 C 5,7 C 5,3 C 0,0 C 82 % 89 % 995,8 hPa 0,0 l/m 0,5 km/h (0 Bft) S-SW 202 0 min 3,1 C 5,3 C 1,9 km/h (1 Bft)
12.03.2018 02:25 5,7 C 5,0 C 4,5 C 5,5 C 5,2 C 0,0 C 83 % 89 % 995,8 hPa 0,0 l/m 0,5 km/h (0 Bft) S-SW 202 0 min 3,0 C 5,2 C 0,0 km/h (0 Bft)
12.03.2018 02:30 5,6 C 4,8 C 4,5 C 5,5 C 5,2 C 0,0 C 83 % 89 % 995,8 hPa 0,0 l/m 0,5 km/h (0 Bft) O-SO 112 0 min 2,9 C 5,2 C 0,0 km/h (0 Bft)
12.03.2018 02:35 5,6 C 4,8 C 4,5 C 5,5 C 5,2 C 0,0 C 83 % 89 % 995,5 hPa 0,0 l/m 0,5 km/h (0 Bft) O-SO 112 0 min 2,9 C 5,2 C 0,0 km/h (0 Bft)
12.03.2018 02:40 5,5 C 4,8 C 4,4 C 5,4 C 5,3 C 0,0 C 83 % 89 % 995,5 hPa 0,0 l/m 0,2 km/h (0 Bft) O-SO 112 0 min 2,8 C 5,3 C 0,0 km/h (0 Bft)
12.03.2018 02:45 5,5 C 5,0 C 4,5 C 5,4 C 5,3 C 0,0 C 84 % 89 % 995,5 hPa 0,0 l/m 0,0 km/h (0 Bft) O-SO 112 0 min 3,0 C 5,3 C 0,0 km/h (0 Bft)
12.03.2018 02:50 5,5 C 4,8 C 4,5 C 5,4 C 5,3 C 0,0 C 84 % 89 % 995,5 hPa 0,0 l/m 0,0 km/h (0 Bft) SO 135 0 min 3,0 C 5,3 C 0,0 km/h (0 Bft)
12.03.2018 02:55 5,3 C 4,8 C 4,5 C 5,3 C 5,2 C 0,0 C 84 % 89 % 995,6 hPa 0,0 l/m 0,0 km/h (0 Bft) SO 135 0 min 2,8 C 5,2 C 0,0 km/h (0 Bft)
12.03.2018 03:00 5,2 C 4,8 C 4,5 C 5,2 C 5,2 C 0,0 C 84 % 89 % 995,6 hPa 0,0 l/m 0,0 km/h (0 Bft) SO 135 0 min 2,7 C 5,2 C 0,0 km/h (0 Bft)
12.03.2018 03:05 5,2 C 4,8 C 4,5 C 5,1 C 5,0 C 0,0 C 84 % 89 % 995,6 hPa 0,0 l/m 0,0 km/h (0 Bft) SO 135 0 min 2,7 C 5,0 C 0,0 km/h (0 Bft)
12.03.2018 03:10 5,1 C 5,0 C 4,5 C 5,1 C 5,0 C 0,0 C 84 % 89 % 995,6 hPa 0,0 l/m 0,0 km/h (0 Bft) O-SO 112 0 min 2,6 C 5,0 C 0,0 km/h (0 Bft)
12.03.2018 03:15 5,1 C 4,8 C 4,4 C 5,1 C 5,1 C 0,0 C 84 % 89 % 995,5 hPa 0,0 l/m 0,0 km/h (0 Bft) O-SO 112 0 min 2,6 C 5,1 C 0,0 km/h (0 Bft)
12.03.2018 03:20 5,1 C 5,0 C 4,4 C 5,1 C 5,0 C 0,0 C 84 % 89 % 995,5 hPa 0,0 l/m 0,0 km/h (0 Bft) O-SO 112 0 min 2,6 C 5,0 C 0,0 km/h (0 Bft)
12.03.2018 03:25 5,1 C 4,8 C 4,4 C 5,1 C 5,0 C 0,0 C 84 % 89 % 995,5 hPa 0,0 l/m 0,0 km/h (0 Bft) O-SO 112 0 min 2,6 C 5,0 C 0,0 km/h (0 Bft)
12.03.2018 03:30 5,0 C 4,8 C 4,3 C 5,0 C 5,0 C 0,0 C 84 % 89 % 995,5 hPa 0,0 l/m 0,0 km/h (0 Bft) O-SO 112 0 min 2,5 C 5,0 C 0,0 km/h (0 Bft)
12.03.2018 03:35 4,9 C 4,8 C 4,3 C 5,0 C 5,0 C 0,1 C 84 % 89 % 995,1 hPa 0,0 l/m 0,0 km/h (0 Bft) SO 135 0 min 2,4 C 5,0 C 0,0 km/h (0 Bft)
12.03.2018 03:40 4,9 C 4,8 C 4,3 C 4,9 C 4,8 C 0,0 C 85 % 89 % 995,1 hPa 0,0 l/m 0,0 km/h (0 Bft) S 180 0 min 2,6 C 4,8 C 0,0 km/h (0 Bft)
12.03.2018 03:45 4,9 C 4,8 C 4,1 C 4,8 C 4,6 C 0,0 C 85 % 89 % 995,1 hPa 0,0 l/m 0,0 km/h (0 Bft) S 180 0 min 2,6 C 4,6 C 0,0 km/h (0 Bft)
12.03.2018 03:50 4,8 C 4,8 C 4,0 C 4,7 C 4,5 C 0,0 C 84 % 89 % 995,1 hPa 0,0 l/m 0,0 km/h (0 Bft) S 180 0 min 2,3 C 4,5 C 0,0 km/h (0 Bft)
12.03.2018 03:55 4,7 C 4,8 C 4,0 C 4,6 C 4,4 C 0,0 C 85 % 89 % 994,9 hPa 0,0 l/m 0,0 km/h (0 Bft) S 180 0 min 2,4 C 4,4 C 0,0 km/h (0 Bft)
12.03.2018 04:00 4,5 C 4,8 C 4,0 C 4,5 C 4,4 C 0,0 C 84 % 89 % 994,9 hPa 0,0 l/m 0,0 km/h (0 Bft) S 180 0 min 2,0 C 4,4 C 0,0 km/h (0 Bft)
12.03.2018 04:05 4,5 C 4,8 C 4,0 C 4,6 C 4,6 C 0,1 C 84 % 89 % 994,9 hPa 0,0 l/m 0,0 km/h (0 Bft) SO 135 0 min 2,0 C 4,6 C 0,0 km/h (0 Bft)
12.03.2018 04:10 4,5 C 4,8 C 4,1 C 4,7 C 4,7 C 0,2 C 85 % 89 % 994,9 hPa 0,0 l/m 0,0 km/h (0 Bft) SO 135 0 min 2,2 C 4,7 C 0,0 km/h (0 Bft)
12.03.2018 04:15 4,5 C 4,7 C 4,0 C 4,8 C 4,8 C 0,3 C 85 % 89 % 994,8 hPa 0,0 l/m 0,0 km/h (0 Bft) SO 135 0 min 2,2 C 4,8 C 0,0 km/h (0 Bft)
12.03.2018 04:20 4,5 C 4,7 C 4,1 C 4,8 C 4,8 C 0,3 C 85 % 89 % 994,8 hPa 0,0 l/m 0,0 km/h (0 Bft) SO 135 0 min 2,2 C 4,8 C 0,0 km/h (0 Bft)
12.03.2018 04:25 4,5 C 4,8 C 4,3 C 5,0 C 5,0 C 0,5 C 85 % 89 % 994,8 hPa 0,0 l/m 0,0 km/h (0 Bft) S-SO 157 0 min 2,2 C 5,0 C 0,0 km/h (0 Bft)
12.03.2018 04:30 4,5 C 4,7 C 4,3 C 5,1 C 5,1 C 0,6 C 85 % 89 % 994,8 hPa 0,0 l/m 0,0 km/h (0 Bft) SO 135 0 min 2,2 C 5,1 C 0,0 km/h (0 Bft)
12.03.2018 04:35 4,5 C 4,7 C 4,3 C 5,1 C 5,1 C 0,6 C 86 % 89 % 994,7 hPa 0,0 l/m 0,0 km/h (0 Bft) SO 135 0 min 2,4 C 5,1 C 0,0 km/h (0 Bft)
12.03.2018 04:40 4,5 C 4,7 C 4,3 C 5,2 C 5,2 C 0,7 C 85 % 89 % 994,7 hPa 0,0 l/m 0,0 km/h (0 Bft) SO 135 0 min 2,2 C 5,2 C 0,0 km/h (0 Bft)
12.03.2018 04:45 4,6 C 4,7 C 4,4 C 5,3 C 5,3 C 0,7 C 86 % 89 % 994,7 hPa 0,0 l/m 1,0 km/h (0 Bft) S 180 0 min 2,5 C 5,3 C 4,5 km/h (1 Bft)
12.03.2018 04:50 4,7 C 4,7 C 4,4 C 5,3 C 5,3 C 0,6 C 86 % 89 % 994,7 hPa 0,0 l/m 1,0 km/h (0 Bft) S 180 0 min 2,6 C 5,3 C 0,0 km/h (0 Bft)
12.03.2018 04:55 4,6 C 4,7 C 4,4 C 5,3 C 5,3 C 0,7 C 86 % 89 % 994,8 hPa 0,0 l/m 0,0 km/h (0 Bft) S 180 0 min 2,5 C 5,3 C 0,0 km/h (0 Bft)
12.03.2018 05:00 4,6 C 4,7 C 4,4 C 5,3 C 5,3 C 0,7 C 86 % 89 % 994,8 hPa 0,0 l/m 0,0 km/h (0 Bft) S 180 0 min 2,5 C 5,3 C 0,0 km/h (0 Bft)
12.03.2018 05:05 4,6 C 4,6 C 4,4 C 5,3 C 5,3 C 0,7 C 86 % 89 % 994,8 hPa 0,0 l/m 0,0 km/h (0 Bft) S-SW 202 0 min 2,5 C 5,3 C 0,0 km/h (0 Bft)
12.03.2018 05:10 4,7 C 4,7 C 4,4 C 5,2 C 5,2 C 0,5 C 86 % 89 % 994,8 hPa 0,0 l/m 0,0 km/h (0 Bft) S-SO 157 0 min 2,6 C 5,2 C 0,0 km/h (0 Bft)
12.03.2018 05:15 4,7 C 4,7 C 4,5 C 5,3 C 5,3 C 0,6 C 86 % 89 % 994,8 hPa 0,0 l/m 0,0 km/h (0 Bft) SO 135 0 min 2,6 C 5,3 C 0,0 km/h (0 Bft)
12.03.2018 05:20 4,7 C 4,7 C 4,5 C 5,3 C 5,3 C 0,6 C 86 % 89 % 994,8 hPa 0,0 l/m 0,0 km/h (0 Bft) SO 135 0 min 2,6 C 5,3 C 0,0 km/h (0 Bft)
12.03.2018 05:25 4,7 C 4,7 C 4,5 C 5,5 C 5,5 C 0,8 C 86 % 89 % 994,8 hPa 0,0 l/m 0,0 km/h (0 Bft) SO 135 0 min 2,6 C 5,5 C 0,0 km/h (0 Bft)
12.03.2018 05:30 4,7 C 4,6 C 4,7 C 5,5 C 5,5 C 0,8 C 86 % 89 % 994,8 hPa 0,0 l/m 0,0 km/h (0 Bft) S-SW 202 0 min 2,6 C 5,5 C 1,8 km/h (1 Bft)
12.03.2018 05:35 4,7 C 4,6 C 4,7 C 5,7 C 5,7 C 1,0 C 86 % 89 % 994,8 hPa 0,0 l/m 0,2 km/h (0 Bft) SO 135 0 min 2,6 C 5,7 C 0,0 km/h (0 Bft)
12.03.2018 05:40 4,7 C 4,6 C 4,8 C 5,7 C 5,7 C 1,0 C 86 % 89 % 994,8 hPa 0,0 l/m 0,2 km/h (0 Bft) SO 135 0 min 2,6 C 5,7 C 0,0 km/h (0 Bft)
12.03.2018 05:45 4,8 C 4,6 C 4,8 C 5,7 C 5,7 C 0,9 C 86 % 89 % 994,8 hPa 0,0 l/m 0,0 km/h (0 Bft) SO 135 0 min 2,7 C 5,7 C 0,0 km/h (0 Bft)
12.03.2018 05:50 4,8 C 4,6 C 4,8 C 5,9 C 5,9 C 1,1 C 86 % 89 % 994,8 hPa 0,0 l/m 0,0 km/h (0 Bft) SO 135 0 min 2,7 C 5,9 C 0,0 km/h (0 Bft)
12.03.2018 05:55 5,0 C 4,6 C 5,1 C 6,0 C 6,0 C 1,0 C 86 % 89 % 994,7 hPa 0,0 l/m 0,0 km/h (0 Bft) O-SO 112 0 min 2,9 C 6,0 C 0,0 km/h (0 Bft)
12.03.2018 06:00 5,0 C 4,6 C 5,5 C 6,1 C 6,1 C 1,1 C 86 % 89 % 994,7 hPa 0,0 l/m 0,0 km/h (0 Bft) O-SO 112 0 min 2,9 C 6,1 C 0,0 km/h (0 Bft)
12.03.2018 06:05 5,1 C 4,6 C 5,5 C 6,3 C 6,3 C 1,2 C 86 % 89 % 994,7 hPa 0,0 l/m 0,5 km/h (0 Bft) S 180 0 min 3,0 C 6,3 C 5,6 km/h (1 Bft)
12.03.2018 06:10 5,2 C 4,6 C 5,5 C 6,4 C 6,4 C 1,2 C 86 % 89 % 994,7 hPa 0,0 l/m 0,8 km/h (0 Bft) S 180 0 min 3,1 C 6,4 C 2,1 km/h (1 Bft)
12.03.2018 06:15 5,5 C 4,6 C 5,6 C 6,6 C 6,6 C 1,1 C 86 % 89 % 994,4 hPa 0,0 l/m 1,0 km/h (0 Bft) S 180 0 min 3,3 C 6,6 C 1,8 km/h (1 Bft)
12.03.2018 06:20 5,6 C 4,6 C 5,7 C 6,7 C 6,7 C 1,1 C 86 % 89 % 994,4 hPa 0,0 l/m 1,1 km/h (1 Bft) S 180 0 min 3,4 C 6,7 C 3,4 km/h (1 Bft)
12.03.2018 06:25 5,7 C 4,6 C 6,0 C 6,8 C 6,8 C 1,1 C 86 % 88 % 994,4 hPa 0,0 l/m 0,3 km/h (0 Bft) S-SO 157 0 min 3,5 C 6,8 C 0,0 km/h (0 Bft)
12.03.2018 06:30 5,9 C 4,6 C 6,0 C 6,8 C 6,8 C 0,9 C 86 % 88 % 994,4 hPa 0,0 l/m 0,3 km/h (0 Bft) S-SO 157 0 min 3,7 C 6,8 C 0,0 km/h (0 Bft)
12.03.2018 06:35 6,0 C 4,6 C 6,1 C 6,8 C 6,8 C 0,8 C 86 % 88 % 994,5 hPa 0,0 l/m 0,5 km/h (0 Bft) SO 135 0 min 3,8 C 6,8 C 2,7 km/h (1 Bft)
12.03.2018 06:40 6,1 C 4,6 C 6,2 C 6,8 C 6,8 C 0,7 C 86 % 88 % 994,5 hPa 0,0 l/m 0,8 km/h (0 Bft) S-SO 157 0 min 3,9 C 6,8 C 0,0 km/h (0 Bft)
12.03.2018 06:45 6,2 C 4,7 C 6,1 C 6,8 C 6,8 C 0,6 C 86 % 88 % 994,5 hPa 0,0 l/m 0,6 km/h (0 Bft) S 180 5 min 4,0 C 6,8 C 0,0 km/h (0 Bft)
12.03.2018 06:50 6,3 C 4,8 C 6,0 C 6,8 C 6,8 C 0,5 C 86 % 89 % 994,5 hPa 0,0 l/m 0,2 km/h (0 Bft) SO 135 5 min 4,1 C 6,8 C 0,0 km/h (0 Bft)
12.03.2018 06:55 6,4 C 4,8 C 5,9 C 6,7 C 6,7 C 0,3 C 86 % 89 % 994,4 hPa 0,0 l/m 0,0 km/h (0 Bft) SO 135 0 min 4,2 C 6,7 C 0,0 km/h (0 Bft)
12.03.2018 07:00 6,5 C 4,9 C 6,0 C 6,7 C 6,7 C 0,2 C 86 % 89 % 994,4 hPa 0,0 l/m 0,0 km/h (0 Bft) SO 135 0 min 4,3 C 6,7 C 0,0 km/h (0 Bft)
12.03.2018 07:05 6,4 C 4,9 C 6,1 C 6,8 C 6,8 C 0,4 C 86 % 88 % 994,4 hPa 0,0 l/m 0,0 km/h (0 Bft) SO 135 0 min 4,2 C 6,8 C 0,0 km/h (0 Bft)
12.03.2018 07:10 6,4 C 4,9 C 6,1 C 6,8 C 6,8 C 0,4 C 86 % 88 % 994,4 hPa 0,0 l/m 0,0 km/h (0 Bft) SO 135 0 min 4,2 C 6,8 C 0,0 km/h (0 Bft)
12.03.2018 07:15 6,4 C 5,0 C 6,0 C 6,8 C 6,8 C 0,4 C 86 % 88 % 994,8 hPa 0,0 l/m 0,0 km/h (0 Bft) SO 135 0 min 4,2 C 6,8 C 0,0 km/h (0 Bft)
12.03.2018 07:20 6,5 C 5,0 C 6,3 C 6,9 C 6,9 C 0,4 C 86 % 88 % 994,8 hPa 0,0 l/m 0,0 km/h (0 Bft) S-SO 157 0 min 4,3 C 6,9 C 0,0 km/h (0 Bft)
12.03.2018 07:25 6,5 C 4,9 C 6,3 C 7,0 C 7,0 C 0,5 C 86 % 88 % 994,8 hPa 0,0 l/m 0,6 km/h (0 Bft) SO 135 0 min 4,3 C 7,0 C 0,0 km/h (0 Bft)
12.03.2018 07:30 6,7 C 4,9 C 6,4 C 7,1 C 7,1 C 0,4 C 86 % 87 % 994,8 hPa 0,0 l/m 1,0 km/h (0 Bft) S 180 0 min 4,5 C 7,1 C 0,0 km/h (0 Bft)
12.03.2018 07:35 6,7 C 5,0 C 6,5 C 7,1 C 7,1 C 0,4 C 86 % 87 % 994,6 hPa 0,0 l/m 1,0 km/h (0 Bft) S 180 0 min 4,5 C 7,1 C 0,0 km/h (0 Bft)
12.03.2018 07:40 6,7 C 5,0 C 6,5 C 7,1 C 7,1 C 0,4 C 86 % 87 % 994,6 hPa 0,0 l/m 0,8 km/h (0 Bft) SW 225 0 min 4,5 C 7,1 C 0,0 km/h (0 Bft)
12.03.2018 07:45 6,7 C 5,0 C 6,5 C 7,2 C 7,2 C 0,5 C 86 % 87 % 994,6 hPa 0,0 l/m 0,5 km/h (0 Bft) S 180 0 min 4,5 C 7,2 C 0,0 km/h (0 Bft)
12.03.2018 07:50 6,8 C 5,0 C 6,6 C 7,3 C 7,3 C 0,5 C 86 % 87 % 994,6 hPa 0,0 l/m 0,5 km/h (0 Bft) S-SW 202 0 min 4,6 C 7,3 C 1,8 km/h (1 Bft)
12.03.2018 07:55 6,8 C 5,0 C 6,8 C 7,3 C 7,3 C 0,5 C 86 % 87 % 994,6 hPa 0,0 l/m 1,1 km/h (1 Bft) SW 225 0 min 4,6 C 7,3 C 1,6 km/h (1 Bft)
12.03.2018 08:00 6,9 C 5,0 C 6,9 C 7,3 C 7,3 C 0,4 C 86 % 86 % 994,6 hPa 0,0 l/m 1,0 km/h (0 Bft) W-SW 247 0 min 4,7 C 7,3 C 0,0 km/h (0 Bft)
12.03.2018 08:05 6,9 C 5,0 C 7,1 C 7,4 C 7,4 C 0,5 C 86 % 86 % 994,6 hPa 0,7 l/m 0,5 km/h (0 Bft) SO 135 0 min 4,7 C 7,4 C 0,0 km/h (0 Bft)
12.03.2018 08:10 6,9 C 5,0 C 7,0 C 7,5 C 7,5 C 0,6 C 86 % 85 % 994,6 hPa 0,0 l/m 0,6 km/h (0 Bft) S 180 0 min 4,7 C 7,5 C 2,3 km/h (1 Bft)
12.03.2018 08:15 6,8 C 5,0 C 7,1 C 7,5 C 7,5 C 0,7 C 86 % 86 % 994,5 hPa 0,0 l/m 0,3 km/h (0 Bft) SO 135 0 min 4,6 C 7,5 C 0,0 km/h (0 Bft)
12.03.2018 08:20 6,8 C 5,0 C 7,1 C 7,6 C 7,6 C 0,8 C 86 % 85 % 994,5 hPa 0,0 l/m 0,2 km/h (0 Bft) SO 135 0 min 4,6 C 7,6 C 0,0 km/h (0 Bft)
12.03.2018 08:25 6,8 C 5,0 C 7,2 C 7,6 C 7,6 C 0,8 C 86 % 85 % 994,5 hPa 0,0 l/m 0,2 km/h (0 Bft) SO 135 0 min 4,6 C 7,6 C 0,0 km/h (0 Bft)
12.03.2018 08:30 6,8 C 5,0 C 7,3 C 7,7 C 7,7 C 0,9 C 86 % 85 % 994,5 hPa 0,0 l/m 0,2 km/h (0 Bft) S 180 0 min 4,6 C 7,7 C 1,9 km/h (1 Bft)
12.03.2018 08:35 6,8 C 5,0 C 7,3 C 7,8 C 7,8 C 1,0 C 86 % 85 % 994,8 hPa 0,7 l/m 0,2 km/h (0 Bft) SO 135 0 min 4,6 C 7,8 C 0,0 km/h (0 Bft)
12.03.2018 08:40 6,8 C 5,0 C 7,5 C 7,8 C 7,8 C 1,0 C 86 % 85 % 994,8 hPa 0,0 l/m 0,2 km/h (0 Bft) SO 135 0 min 4,6 C 7,8 C 0,0 km/h (0 Bft)
12.03.2018 08:45 6,9 C 5,0 C 7,5 C 7,8 C 7,8 C 0,9 C 86 % 84 % 994,8 hPa 0,0 l/m 0,0 km/h (0 Bft) S-SW 202 0 min 4,7 C 7,8 C 1,8 km/h (1 Bft)
12.03.2018 08:50 6,9 C 5,0 C 7,5 C 7,8 C 7,8 C 0,9 C 87 % 84 % 994,8 hPa 0,0 l/m 0,2 km/h (0 Bft) S-SO 157 0 min 4,9 C 7,8 C 0,0 km/h (0 Bft)
12.03.2018 08:55 6,9 C 5,0 C 7,4 C 7,8 C 7,8 C 0,9 C 87 % 84 % 994,8 hPa 0,7 l/m 0,3 km/h (0 Bft) S-SO 157 0 min 4,9 C 7,8 C 3,4 km/h (1 Bft)
12.03.2018 09:00 6,9 C 5,0 C 7,5 C 7,8 C 7,8 C 0,9 C 87 % 84 % 994,8 hPa 0,7 l/m 0,6 km/h (0 Bft) SW 225 0 min 4,9 C 7,8 C 2,1 km/h (1 Bft)
12.03.2018 09:05 6,9 C 5,0 C 7,5 C 7,9 C 7,9 C 1,0 C 87 % 84 % 994,8 hPa 0,7 l/m 0,6 km/h (0 Bft) SW 225 0 min 4,9 C 7,9 C 0,0 km/h (0 Bft)
12.03.2018 09:10 6,9 C 5,0 C 7,5 C 7,9 C 7,9 C 1,0 C 87 % 83 % 994,8 hPa 0,0 l/m 0,2 km/h (0 Bft) S-SW 202 0 min 4,9 C 7,9 C 0,0 km/h (0 Bft)
12.03.2018 09:15 6,9 C 5,0 C 7,5 C 8,0 C 8,0 C 1,1 C 87 % 83 % 994,4 hPa 0,7 l/m 0,2 km/h (0 Bft) S-SO 157 0 min 4,9 C 8,0 C 0,0 km/h (0 Bft)
12.03.2018 09:20 6,9 C 5,1 C 7,7 C 8,1 C 8,1 C 1,2 C 87 % 82 % 994,4 hPa 0,0 l/m 0,2 km/h (0 Bft) S 180 0 min 4,9 C 8,1 C 0,0 km/h (0 Bft)
12.03.2018 09:25 6,9 C 5,1 C 7,7 C 8,1 C 8,1 C 1,2 C 87 % 80 % 994,4 hPa 0,0 l/m 0,0 km/h (0 Bft) SO 135 0 min 4,9 C 8,1 C 0,0 km/h (0 Bft)
12.03.2018 09:30 7,0 C 5,1 C 7,7 C 8,1 C 8,1 C 1,1 C 87 % 80 % 994,4 hPa 0,7 l/m 0,0 km/h (0 Bft) SO 135 0 min 5,0 C 8,1 C 0,0 km/h (0 Bft)
12.03.2018 09:35 7,1 C 5,1 C 7,9 C 8,2 C 8,2 C 1,1 C 87 % 79 % 994,6 hPa 0,0 l/m 0,0 km/h (0 Bft) SO 135 0 min 5,1 C 8,2 C 0,0 km/h (0 Bft)
12.03.2018 09:40 7,1 C 5,1 C 7,9 C 8,2 C 8,2 C 1,1 C 87 % 78 % 994,6 hPa 0,0 l/m 0,0 km/h (0 Bft) SO 135 0 min 5,1 C 8,2 C 0,0 km/h (0 Bft)
12.03.2018 09:45 7,1 C 5,1 C 8,0 C 8,3 C 8,3 C 1,2 C 87 % 78 % 994,6 hPa 0,0 l/m 0,0 km/h (0 Bft) SO 135 0 min 5,1 C 8,3 C 0,0 km/h (0 Bft)
12.03.2018 09:50 7,1 C 5,2 C 8,0 C 8,4 C 8,4 C 1,3 C 87 % 77 % 994,6 hPa 0,0 l/m 0,0 km/h (0 Bft) SO 135 0 min 5,1 C 8,4 C 0,0 km/h (0 Bft)
12.03.2018 09:55 7,1 C 5,2 C 8,2 C 8,5 C 8,5 C 1,4 C 87 % 77 % 994,9 hPa 0,7 l/m 0,0 km/h (0 Bft) SO 135 0 min 5,1 C 8,5 C 0,0 km/h (0 Bft)
12.03.2018 10:00 7,2 C 5,2 C 8,4 C 8,7 C 8,7 C 1,5 C 87 % 76 % 994,9 hPa 0,0 l/m 0,0 km/h (0 Bft) S-SO 157 0 min 5,2 C 8,7 C 0,0 km/h (0 Bft)
12.03.2018 10:05 7,3 C 5,2 C 8,7 C 8,8 C 8,8 C 1,5 C 87 % 75 % 994,9 hPa 0,0 l/m 0,6 km/h (0 Bft) O-SO 112 0 min 5,3 C 8,8 C 0,0 km/h (0 Bft)
12.03.2018 10:10 7,2 C 5,2 C 8,7 C 8,9 C 8,9 C 1,7 C 87 % 75 % 994,9 hPa 0,0 l/m 1,8 km/h (1 Bft) S-SO 157 0 min 5,2 C 8,9 C 2,6 km/h (1 Bft)
12.03.2018 10:15 7,3 C 5,2 C 8,9 C 9,1 C 9,1 C 1,8 C 87 % 74 % 994,8 hPa 0,0 l/m 2,4 km/h (1 Bft) O-SO 112 0 min 5,3 C 9,1 C 5,0 km/h (1 Bft)
12.03.2018 10:20 7,3 C 5,2 C 8,8 C 9,1 C 9,1 C 1,8 C 87 % 74 % 994,8 hPa 0,0 l/m 2,4 km/h (1 Bft) SO 135 0 min 5,3 C 9,1 C 3,7 km/h (1 Bft)
12.03.2018 10:25 7,5 C 5,4 C 9,1 C 9,3 C 9,3 C 1,8 C 87 % 73 % 994,8 hPa 0,0 l/m 2,3 km/h (1 Bft) SW 225 0 min 5,5 C 9,3 C 6,0 km/h (2 Bft)
12.03.2018 10:30 7,5 C 5,4 C 9,1 C 9,3 C 9,3 C 1,8 C 87 % 73 % 994,8 hPa 0,7 l/m 1,4 km/h (1 Bft) SO 135 0 min 5,5 C 9,3 C 0,0 km/h (0 Bft)
12.03.2018 10:35 7,7 C 5,4 C 9,2 C 9,5 C 9,5 C 1,8 C 87 % 73 % 994,2 hPa 0,0 l/m 1,1 km/h (1 Bft) W-SW 247 0 min 5,7 C 9,5 C 3,9 km/h (1 Bft)
12.03.2018 10:40 7,6 C 5,4 C 9,4 C 9,5 C 9,5 C 1,9 C 87 % 72 % 994,2 hPa 0,0 l/m 1,4 km/h (1 Bft) S-SO 157 0 min 5,6 C 9,5 C 3,5 km/h (1 Bft)
12.03.2018 10:45 7,7 C 5,4 C 9,5 C 9,5 C 9,5 C 1,8 C 87 % 72 % 994,2 hPa 0,0 l/m 2,1 km/h (1 Bft) S 180 0 min 5,7 C 9,5 C 3,4 km/h (1 Bft)
12.03.2018 10:50 7,9 C 5,4 C 9,4 C 9,6 C 9,6 C 1,7 C 87 % 72 % 994,2 hPa 0,0 l/m 1,8 km/h (1 Bft) SO 135 0 min 5,9 C 9,6 C 2,6 km/h (1 Bft)
12.03.2018 10:55 7,9 C 5,4 C 9,5 C 9,8 C 9,8 C 1,9 C 87 % 72 % 994,5 hPa 0,0 l/m 0,8 km/h (0 Bft) N-NW 337 0 min 5,9 C 9,8 C 3,7 km/h (1 Bft)
12.03.2018 11:00 7,9 C 5,5 C 9,6 C 9,8 C 9,8 C 1,9 C 87 % 72 % 994,5 hPa 0,0 l/m 1,8 km/h (1 Bft) S-SO 157 0 min 5,9 C 9,8 C 4,5 km/h (1 Bft)
12.03.2018 11:05 7,9 C 5,4 C 9,6 C 9,7 C 9,7 C 1,8 C 87 % 72 % 994,5 hPa 0,0 l/m 3,9 km/h (1 Bft) SO 135 0 min 5,9 C 9,7 C 7,7 km/h (2 Bft)
12.03.2018 11:10 7,9 C 5,4 C 9,7 C 9,7 C 9,7 C 1,8 C 87 % 72 % 994,5 hPa 0,0 l/m 4,3 km/h (1 Bft) SW 225 0 min 5,9 C 9,7 C 4,7 km/h (1 Bft)
12.03.2018 11:15 8,0 C 5,4 C 9,6 C 9,4 C 9,4 C 1,4 C 87 % 72 % 994,6 hPa 0,0 l/m 4,5 km/h (1 Bft) SO 135 0 min 6,0 C 9,4 C 4,8 km/h (1 Bft)
12.03.2018 11:20 8,0 C 5,4 C 9,6 C 9,7 C 9,7 C 1,7 C 87 % 72 % 994,6 hPa 0,0 l/m 4,2 km/h (1 Bft) SW 225 0 min 6,0 C 9,7 C 6,0 km/h (2 Bft)
12.03.2018 11:25 8,1 C 5,4 C 9,7 C 9,7 C 9,7 C 1,6 C 87 % 72 % 994,6 hPa 0,0 l/m 4,2 km/h (1 Bft) S 180 0 min 6,1 C 9,7 C 10,1 km/h (2 Bft)
12.03.2018 11:30 8,0 C 5,4 C 9,9 C 9,8 C 9,8 C 1,8 C 87 % 72 % 994,6 hPa 0,0 l/m 4,0 km/h (1 Bft) S 180 0 min 6,0 C 9,8 C 11,6 km/h (2 Bft)
12.03.2018 11:35 8,1 C 5,4 C 9,9 C 9,9 C 9,9 C 1,8 C 87 % 72 % 994,6 hPa 0,0 l/m 3,1 km/h (1 Bft) S 180 0 min 6,1 C 9,9 C 5,0 km/h (1 Bft)
12.03.2018 11:40 8,2 C 5,4 C 10,0 C 10,0 C 10,0 C 1,8 C 87 % 71 % 994,6 hPa 0,0 l/m 3,4 km/h (1 Bft) SW 225 0 min 6,2 C 10,0 C 5,0 km/h (1 Bft)
12.03.2018 11:45 8,3 C 5,4 C 10,1 C 10,0 C 10,0 C 1,7 C 87 % 71 % 994,6 hPa 0,0 l/m 3,4 km/h (1 Bft) S 180 0 min 6,3 C 10,0 C 1,9 km/h (1 Bft)
12.03.2018 11:50 8,3 C 5,5 C 10,0 C 10,0 C 10,0 C 1,7 C 87 % 71 % 994,6 hPa 0,0 l/m 2,9 km/h (1 Bft) SO 135 0 min 6,3 C 10,0 C 0,0 km/h (0 Bft)
12.03.2018 11:55 8,4 C 5,5 C 10,1 C 10,3 C 10,3 C 1,9 C 87 % 71 % 994,3 hPa 0,0 l/m 2,1 km/h (1 Bft) S-SO 157 0 min 6,4 C 10,3 C 3,4 km/h (1 Bft)
12.03.2018 12:00 8,4 C 5,5 C 10,3 C 10,3 C 10,3 C 1,9 C 87 % 71 % 994,3 hPa 0,0 l/m 2,6 km/h (1 Bft) S 180 0 min 6,4 C 10,3 C 2,4 km/h (1 Bft)
12.03.2018 12:05 8,4 C 5,5 C 10,2 C 10,2 C 10,2 C 1,8 C 87 % 71 % 994,3 hPa 0,7 l/m 4,0 km/h (1 Bft) SW 225 0 min 6,4 C 10,2 C 5,0 km/h (1 Bft)
12.03.2018 12:10 8,5 C 5,5 C 10,1 C 10,1 C 10,1 C 1,6 C 87 % 71 % 994,3 hPa 0,0 l/m 4,2 km/h (1 Bft) S 180 0 min 6,5 C 10,1 C 3,5 km/h (1 Bft)
12.03.2018 12:15 8,4 C 5,5 C 10,0 C 10,0 C 10,0 C 1,6 C 87 % 71 % 994,6 hPa 0,0 l/m 2,6 km/h (1 Bft) S-SO 157 0 min 6,4 C 10,0 C 7,4 km/h (2 Bft)
12.03.2018 12:20 8,4 C 5,5 C 10,1 C 10,0 C 10,0 C 1,6 C 87 % 71 % 994,6 hPa 0,0 l/m 2,3 km/h (1 Bft) S-SW 202 0 min 6,4 C 10,0 C 4,0 km/h (1 Bft)
12.03.2018 12:25 8,5 C 5,5 C 10,0 C 10,0 C 10,0 C 1,5 C 87 % 71 % 994,6 hPa 0,0 l/m 2,6 km/h (1 Bft) SW 225 0 min 6,5 C 10,0 C 5,6 km/h (1 Bft)
12.03.2018 12:30 8,4 C 5,5 C 10,1 C 10,0 C 10,0 C 1,6 C 87 % 71 % 994,6 hPa 0,0 l/m 2,6 km/h (1 Bft) S-SO 157 0 min 6,4 C 10,0 C 4,3 km/h (1 Bft)
12.03.2018 12:35 8,5 C 5,5 C 10,1 C 10,1 C 10,1 C 1,6 C 87 % 70 % 994,6 hPa 0,0 l/m 2,7 km/h (1 Bft) W 270 0 min 6,5 C 10,1 C 2,1 km/h (1 Bft)
12.03.2018 12:40 8,5 C 5,7 C 10,3 C 10,2 C 10,2 C 1,7 C 87 % 70 % 994,6 hPa 0,0 l/m 2,1 km/h (1 Bft) SW 225 0 min 6,5 C 10,2 C 3,2 km/h (1 Bft)
12.03.2018 12:45 8,6 C 5,7 C 10,1 C 10,1 C 10,1 C 1,5 C 87 % 70 % 994,6 hPa 0,0 l/m 2,7 km/h (1 Bft) S 180 0 min 6,6 C 10,1 C 3,9 km/h (1 Bft)
12.03.2018 12:50 8,5 C 5,7 C 10,0 C 10,0 C 10,0 C 1,5 C 87 % 70 % 994,6 hPa 0,7 l/m 3,2 km/h (1 Bft) SW 225 0 min 6,5 C 10,0 C 2,1 km/h (1 Bft)
12.03.2018 12:55 8,5 C 5,7 C 10,0 C 10,0 C 10,0 C 1,5 C 87 % 70 % 994,6 hPa 0,0 l/m 3,1 km/h (1 Bft) W-SW 247 0 min 6,5 C 10,0 C 3,4 km/h (1 Bft)
12.03.2018 13:00 8,5 C 5,7 C 10,0 C 10,0 C 10,0 C 1,5 C 87 % 70 % 994,6 hPa 0,0 l/m 2,9 km/h (1 Bft) W-SW 247 0 min 6,5 C 10,0 C 3,2 km/h (1 Bft)
12.03.2018 13:05 8,6 C 5,7 C 10,1 C 10,1 C 10,1 C 1,5 C 87 % 69 % 994,6 hPa 0,0 l/m 3,4 km/h (1 Bft) SW 225 0 min 6,6 C 10,1 C 3,4 km/h (1 Bft)
12.03.2018 13:10 8,7 C 5,7 C 10,2 C 9,9 C 9,9 C 1,2 C 87 % 69 % 994,6 hPa 0,0 l/m 4,8 km/h (1 Bft) S-SW 202 0 min 6,7 C 9,7 C 10,0 km/h (2 Bft)
12.03.2018 13:15 8,7 C 5,8 C 10,2 C 9,7 C 9,7 C 1,0 C 87 % 69 % 994,4 hPa 0,7 l/m 6,1 km/h (2 Bft) SW 225 0 min 6,7 C 9,1 C 11,7 km/h (2 Bft)
12.03.2018 13:20 8,8 C 5,8 C 10,3 C 9,7 C 9,7 C 0,9 C 87 % 69 % 994,4 hPa 0,0 l/m 6,4 km/h (2 Bft) SW 225 0 min 6,8 C 9,0 C 10,3 km/h (2 Bft)
12.03.2018 13:25 8,9 C 5,8 C 10,4 C 9,6 C 9,6 C 0,7 C 87 % 68 % 994,4 hPa 0,0 l/m 7,2 km/h (2 Bft) SW 225 0 min 6,9 C 8,7 C 16,6 km/h (3 Bft)
12.03.2018 13:30 8,9 C 5,8 C 10,4 C 9,6 C 9,6 C 0,7 C 87 % 68 % 994,4 hPa 0,0 l/m 8,0 km/h (2 Bft) SW 225 0 min 6,9 C 8,5 C 9,5 km/h (2 Bft)
12.03.2018 13:35 9,0 C 5,8 C 10,4 C 10,0 C 10,0 C 1,0 C 87 % 68 % 994,5 hPa 0,0 l/m 6,1 km/h (2 Bft) S-SO 157 0 min 7,0 C 9,4 C 5,8 km/h (2 Bft)
12.03.2018 13:40 9,0 C 5,8 C 10,4 C 10,3 C 10,3 C 1,3 C 87 % 68 % 994,5 hPa 0,0 l/m 5,1 km/h (1 Bft) SW 225 0 min 7,0 C 10,3 C 4,8 km/h (1 Bft)
12.03.2018 13:45 9,1 C 5,9 C 10,5 C 10,6 C 10,6 C 1,5 C 87 % 68 % 994,5 hPa 0,0 l/m 4,7 km/h (1 Bft) S-SW 202 0 min 7,1 C 10,6 C 6,8 km/h (2 Bft)
12.03.2018 13:50 9,1 C 5,9 C 10,4 C 10,2 C 10,2 C 1,1 C 87 % 69 % 994,5 hPa 0,0 l/m 5,0 km/h (1 Bft) W-SW 247 0 min 7,1 C 10,2 C 5,3 km/h (1 Bft)
12.03.2018 13:55 8,9 C 5,9 C 10,4 C 10,1 C 10,1 C 1,2 C 87 % 69 % 994,6 hPa 0,0 l/m 5,5 km/h (1 Bft) SW 225 0 min 6,9 C 10,1 C 5,8 km/h (2 Bft)
12.03.2018 14:00 8,9 C 5,9 C 10,4 C 9,9 C 9,9 C 1,0 C 87 % 69 % 994,6 hPa 0,7 l/m 5,5 km/h (1 Bft) SW 225 0 min 6,9 C 9,5 C 8,2 km/h (2 Bft)
12.03.2018 14:05 8,8 C 5,9 C 10,3 C 9,8 C 9,8 C 1,0 C 87 % 69 % 994,6 hPa 0,0 l/m 5,5 km/h (1 Bft) SW 225 0 min 6,8 C 9,4 C 6,9 km/h (2 Bft)
12.03.2018 14:10 8,9 C 6,0 C 10,2 C 9,7 C 9,7 C 0,8 C 87 % 69 % 994,6 hPa 0,0 l/m 5,6 km/h (1 Bft) SW 225 0 min 6,9 C 9,2 C 5,5 km/h (1 Bft)
12.03.2018 14:15 8,8 C 6,0 C 10,2 C 9,6 C 9,6 C 0,8 C 87 % 69 % 994,4 hPa 0,0 l/m 6,0 km/h (2 Bft) W-SW 247 0 min 6,8 C 9,0 C 3,9 km/h (1 Bft)
12.03.2018 14:20 8,9 C 6,0 C 10,2 C 9,5 C 9,5 C 0,6 C 87 % 69 % 994,4 hPa 0,0 l/m 5,8 km/h (2 Bft) S-SW 202 0 min 6,9 C 9,0 C 6,1 km/h (2 Bft)
12.03.2018 14:25 8,8 C 6,0 C 10,1 C 9,7 C 9,7 C 0,9 C 87 % 69 % 994,4 hPa 0,7 l/m 5,1 km/h (1 Bft) SW 225 0 min 6,8 C 9,4 C 3,9 km/h (1 Bft)
12.03.2018 14:30 8,8 C 6,0 C 10,1 C 9,9 C 9,9 C 1,1 C 87 % 69 % 994,4 hPa 0,0 l/m 4,5 km/h (1 Bft) SW 225 0 min 6,8 C 9,9 C 5,1 km/h (1 Bft)
12.03.2018 14:35 8,8 C 6,1 C 10,0 C 10,0 C 10,0 C 1,2 C 87 % 69 % 994,4 hPa 0,0 l/m 3,5 km/h (1 Bft) S 180 0 min 6,8 C 10,0 C 3,9 km/h (1 Bft)
12.03.2018 14:40 8,8 C 6,1 C 10,1 C 10,0 C 10,0 C 1,2 C 87 % 68 % 994,4 hPa 0,0 l/m 3,7 km/h (1 Bft) SW 225 0 min 6,8 C 10,0 C 4,3 km/h (1 Bft)
12.03.2018 14:45 8,7 C 6,1 C 10,0 C 9,7 C 9,7 C 1,0 C 87 % 68 % 994,4 hPa 0,0 l/m 5,0 km/h (1 Bft) SW 225 0 min 6,7 C 9,4 C 7,1 km/h (2 Bft)
12.03.2018 14:50 8,7 C 6,1 C 10,0 C 9,7 C 9,7 C 1,0 C 87 % 68 % 994,4 hPa 0,7 l/m 5,0 km/h (1 Bft) S 180 0 min 6,7 C 9,4 C 4,2 km/h (1 Bft)
12.03.2018 14:55 8,7 C 6,1 C 10,0 C 9,8 C 9,8 C 1,1 C 87 % 68 % 994,6 hPa 0,0 l/m 4,7 km/h (1 Bft) N-NO 22 0 min 6,7 C 9,6 C 3,2 km/h (1 Bft)
12.03.2018 15:00 8,7 C 6,1 C 10,0 C 10,0 C 10,0 C 1,3 C 87 % 68 % 994,6 hPa 0,0 l/m 3,5 km/h (1 Bft) SW 225 0 min 6,7 C 10,0 C 3,5 km/h (1 Bft)
12.03.2018 15:05 8,7 C 6,1 C 10,0 C 10,0 C 10,0 C 1,3 C 87 % 68 % 994,6 hPa 0,0 l/m 2,3 km/h (1 Bft) S-SO 157 0 min 6,7 C 10,0 C 4,8 km/h (1 Bft)
12.03.2018 15:10 8,7 C 6,1 C 10,1 C 10,0 C 10,0 C 1,3 C 87 % 68 % 994,6 hPa 0,7 l/m 2,3 km/h (1 Bft) O-SO 112 0 min 6,7 C 10,0 C 3,1 km/h (1 Bft)
12.03.2018 15:15 8,6 C 6,1 C 10,0 C 10,0 C 10,0 C 1,4 C 87 % 68 % 994,4 hPa 0,0 l/m 2,7 km/h (1 Bft) O-SO 112 0 min 6,6 C 10,0 C 3,9 km/h (1 Bft)
12.03.2018 15:20 8,6 C 6,1 C 9,9 C 10,0 C 10,0 C 1,4 C 87 % 68 % 994,4 hPa 0,0 l/m 2,4 km/h (1 Bft) SO 135 0 min 6,6 C 10,0 C 6,3 km/h (2 Bft)
12.03.2018 15:25 8,7 C 6,1 C 9,8 C 9,9 C 9,9 C 1,2 C 87 % 67 % 994,4 hPa 0,0 l/m 2,6 km/h (1 Bft) S 180 0 min 6,7 C 9,9 C 7,2 km/h (2 Bft)
12.03.2018 15:30 8,7 C 6,1 C 9,9 C 9,9 C 9,9 C 1,2 C 87 % 68 % 994,4 hPa 0,7 l/m 3,2 km/h (1 Bft) W-SW 247 0 min 6,7 C 9,9 C 2,9 km/h (1 Bft)
12.03.2018 15:35 8,5 C 6,1 C 9,8 C 9,8 C 9,8 C 1,3 C 87 % 67 % 994,5 hPa 0,7 l/m 4,2 km/h (1 Bft) SW 225 0 min 6,5 C 9,8 C 6,6 km/h (2 Bft)
12.03.2018 15:40 8,5 C 6,2 C 9,9 C 9,6 C 9,6 C 1,1 C 87 % 67 % 994,5 hPa 0,0 l/m 4,7 km/h (1 Bft) SW 225 0 min 6,5 C 9,4 C 5,3 km/h (1 Bft)
12.03.2018 15:45 8,4 C 6,2 C 9,7 C 9,1 C 9,1 C 0,7 C 87 % 67 % 994,5 hPa 0,0 l/m 6,4 km/h (2 Bft) S-SW 202 0 min 6,4 C 8,3 C 8,5 km/h (2 Bft)
12.03.2018 15:50 8,4 C 6,2 C 9,7 C 8,9 C 8,9 C 0,5 C 87 % 67 % 994,5 hPa 0,0 l/m 6,9 km/h (2 Bft) S-SW 202 0 min 6,4 C 8,0 C 8,9 km/h (2 Bft)
12.03.2018 15:55 8,5 C 6,2 C 9,7 C 8,9 C 8,9 C 0,4 C 87 % 67 % 994,3 hPa 0,0 l/m 7,2 km/h (2 Bft) W-SW 247 0 min 6,5 C 7,9 C 6,3 km/h (2 Bft)
12.03.2018 16:00 8,5 C 6,2 C 9,7 C 8,9 C 8,9 C 0,4 C 87 % 67 % 994,3 hPa 0,0 l/m 7,2 km/h (2 Bft) W-SW 247 0 min 6,5 C 7,9 C 7,7 km/h (2 Bft)
12.03.2018 16:05 8,5 C 6,3 C 9,6 C 8,8 C 8,8 C 0,3 C 87 % 67 % 994,3 hPa 0,7 l/m 7,4 km/h (2 Bft) S-SW 202 0 min 6,5 C 7,7 C 6,9 km/h (2 Bft)
12.03.2018 16:10 8,4 C 6,3 C 9,7 C 8,8 C 8,8 C 0,4 C 87 % 67 % 994,3 hPa 0,0 l/m 7,4 km/h (2 Bft) SW 225 0 min 6,4 C 7,7 C 15,0 km/h (3 Bft)
12.03.2018 16:15 8,5 C 6,3 C 9,7 C 8,8 C 8,8 C 0,3 C 87 % 67 % 994,6 hPa 0,0 l/m 7,6 km/h (2 Bft) S-SW 202 0 min 6,5 C 7,7 C 10,5 km/h (2 Bft)
12.03.2018 16:20 8,5 C 6,3 C 9,6 C 9,1 C 8,7 C 0,6 C 88 % 66 % 994,6 hPa 0,0 l/m 8,0 km/h (2 Bft) SW 225 0 min 6,6 C 7,5 C 8,5 km/h (2 Bft)
12.03.2018 16:25 8,5 C 6,3 C 9,6 C 9,1 C 8,8 C 0,6 C 88 % 66 % 994,6 hPa 0,0 l/m 7,7 km/h (2 Bft) SW 225 0 min 6,6 C 7,7 C 12,6 km/h (3 Bft)
12.03.2018 16:30 8,5 C 6,4 C 9,7 C 9,1 C 8,7 C 0,6 C 88 % 66 % 994,6 hPa 0,0 l/m 8,0 km/h (2 Bft) SO 135 0 min 6,6 C 7,5 C 10,0 km/h (2 Bft)
12.03.2018 16:35 8,5 C 6,3 C 9,6 C 9,0 C 8,6 C 0,5 C 88 % 66 % 994,9 hPa 0,0 l/m 8,5 km/h (2 Bft) W-SW 247 0 min 6,6 C 7,3 C 11,3 km/h (2 Bft)
12.03.2018 16:40 8,5 C 6,4 C 9,6 C 9,0 C 8,7 C 0,5 C 88 % 66 % 994,9 hPa 0,0 l/m 8,2 km/h (2 Bft) SW 225 0 min 6,6 C 7,4 C 9,0 km/h (2 Bft)
12.03.2018 16:45 8,5 C 6,4 C 9,6 C 9,1 C 8,8 C 0,6 C 88 % 66 % 994,9 hPa 0,0 l/m 7,7 km/h (2 Bft) SW 225 0 min 6,6 C 7,7 C 10,5 km/h (2 Bft)
12.03.2018 16:50 8,5 C 6,4 C 9,6 C 8,8 C 8,8 C 0,3 C 87 % 66 % 994,9 hPa 0,7 l/m 7,7 km/h (2 Bft) SW 225 0 min 6,5 C 7,7 C 7,9 km/h (2 Bft)
12.03.2018 16:55 8,5 C 6,4 C 9,6 C 9,1 C 8,7 C 0,6 C 87 % 66 % 994,8 hPa 0,0 l/m 7,9 km/h (2 Bft) SW 225 0 min 6,5 C 7,5 C 8,2 km/h (2 Bft)
12.03.2018 17:00 8,5 C 6,4 C 9,6 C 8,7 C 8,7 C 0,2 C 87 % 66 % 994,8 hPa 0,0 l/m 7,7 km/h (2 Bft) SW 225 0 min 6,5 C 7,5 C 10,5 km/h (2 Bft)
12.03.2018 17:05 8,4 C 6,4 C 9,5 C 9,0 C 8,6 C 0,6 C 87 % 66 % 994,8 hPa 0,0 l/m 7,7 km/h (2 Bft) SW 225 0 min 6,4 C 7,4 C 7,1 km/h (2 Bft)
12.03.2018 17:10 8,5 C 6,5 C 9,5 C 8,7 C 8,7 C 0,2 C 87 % 66 % 994,8 hPa 0,0 l/m 7,2 km/h (2 Bft) S-SW 202 0 min 6,5 C 7,7 C 8,4 km/h (2 Bft)
12.03.2018 17:15 8,4 C 6,5 C 9,5 C 8,8 C 8,8 C 0,4 C 87 % 66 % 995,0 hPa 0,0 l/m 6,9 km/h (2 Bft) SW 225 0 min 6,4 C 7,9 C 7,1 km/h (2 Bft)
12.03.2018 17:20 8,4 C 6,5 C 9,5 C 8,6 C 8,6 C 0,2 C 87 % 66 % 995,0 hPa 0,0 l/m 7,6 km/h (2 Bft) S-SW 202 0 min 6,4 C 7,5 C 10,8 km/h (2 Bft)
12.03.2018 17:25 8,4 C 6,5 C 9,4 C 8,8 C 8,4 C 0,4 C 87 % 66 % 995,0 hPa 0,0 l/m 7,9 km/h (2 Bft) SW 225 0 min 6,4 C 7,2 C 7,7 km/h (2 Bft)
12.03.2018 17:30 8,4 C 6,5 C 9,5 C 8,4 C 8,4 C 0,0 C 87 % 66 % 995,0 hPa 0,0 l/m 8,0 km/h (2 Bft) W-SW 247 0 min 6,4 C 7,1 C 9,0 km/h (2 Bft)
12.03.2018 17:35 8,4 C 6,5 C 9,5 C 8,7 C 8,3 C 0,3 C 88 % 66 % 995,2 hPa 0,0 l/m 8,5 km/h (2 Bft) S-SW 202 0 min 6,5 C 6,9 C 9,3 km/h (2 Bft)
12.03.2018 17:40 8,4 C 6,5 C 9,5 C 8,8 C 8,5 C 0,4 C 88 % 66 % 995,2 hPa 0,0 l/m 8,2 km/h (2 Bft) W-SW 247 0 min 6,5 C 7,2 C 6,1 km/h (2 Bft)
12.03.2018 17:45 8,4 C 6,5 C 9,4 C 8,8 C 8,4 C 0,4 C 88 % 66 % 995,2 hPa 0,0 l/m 8,7 km/h (2 Bft) SW 225 0 min 6,5 C 7,0 C 10,0 km/h (2 Bft)
12.03.2018 17:50 8,4 C 6,5 C 9,5 C 8,4 C 8,4 C 0,0 C 88 % 66 % 995,2 hPa 0,7 l/m 8,5 km/h (2 Bft) SW 225 0 min 6,5 C 7,0 C 8,5 km/h (2 Bft)
12.03.2018 17:55 8,5 C 6,5 C 9,5 C 8,7 C 8,3 C 0,2 C 87 % 66 % 995,8 hPa 0,0 l/m 8,7 km/h (2 Bft) SW 225 0 min 6,5 C 6,9 C 17,5 km/h (3 Bft)
12.03.2018 18:00 8,4 C 6,5 C 9,3 C 8,7 C 8,2 C 0,3 C 88 % 66 % 995,8 hPa 0,0 l/m 8,9 km/h (2 Bft) S-SW 202 0 min 6,5 C 6,7 C 13,2 km/h (3 Bft)
12.03.2018 18:05 8,3 C 6,5 C 9,2 C 8,4 C 7,7 C 0,1 C 87 % 66 % 995,8 hPa 0,0 l/m 10,5 km/h (2 Bft) SW 225 0 min 6,3 C 5,8 C 20,6 km/h (4 Bft)
12.03.2018 18:10 8,3 C 6,5 C 9,2 C 8,3 C 7,6 C 0,0 C 88 % 66 % 995,8 hPa 0,0 l/m 11,3 km/h (2 Bft) W-SW 247 0 min 6,4 C 5,5 C 9,7 km/h (2 Bft)
12.03.2018 18:15 8,3 C 6,5 C 9,1 C 8,3 C 7,8 C 0,0 C 87 % 66 % 995,8 hPa 0,0 l/m 9,3 km/h (2 Bft) NO 45 0 min 6,3 C 6,1 C 8,0 km/h (2 Bft)
12.03.2018 18:20 8,2 C 6,6 C 9,0 C 8,3 C 7,9 C 0,1 C 87 % 66 % 995,8 hPa 0,0 l/m 8,0 km/h (2 Bft) S 180 0 min 6,2 C 6,5 C 9,3 km/h (2 Bft)
12.03.2018 18:25 8,1 C 6,6 C 9,1 C 8,1 C 8,0 C 0,0 C 87 % 66 % 995,8 hPa 0,7 l/m 7,1 km/h (2 Bft) SW 225 0 min 6,1 C 6,9 C 6,8 km/h (2 Bft)
12.03.2018 18:30 8,0 C 6,6 C 8,9 C 8,1 C 8,1 C 0,1 C 87 % 66 % 995,8 hPa 0,0 l/m 6,6 km/h (2 Bft) SW 225 0 min 6,0 C 7,1 C 7,9 km/h (2 Bft)
12.03.2018 18:35 8,0 C 6,7 C 8,9 C 8,3 C 8,3 C 0,3 C 87 % 66 % 996,1 hPa 0,0 l/m 6,1 km/h (2 Bft) SW 225 0 min 6,0 C 7,5 C 5,5 km/h (1 Bft)
12.03.2018 18:40 8,0 C 6,7 C 8,8 C 8,2 C 8,2 C 0,2 C 87 % 67 % 996,1 hPa 0,0 l/m 6,0 km/h (2 Bft) SW 225 0 min 6,0 C 7,4 C 6,8 km/h (2 Bft)
12.03.2018 18:45 7,9 C 6,7 C 8,8 C 8,4 C 8,4 C 0,5 C 87 % 66 % 996,1 hPa 0,0 l/m 5,3 km/h (1 Bft) W-SW 247 0 min 5,9 C 7,8 C 5,1 km/h (1 Bft)
12.03.2018 18:50 7,9 C 6,8 C 8,8 C 8,4 C 8,4 C 0,5 C 87 % 67 % 996,1 hPa 0,0 l/m 5,1 km/h (1 Bft) S-SW 202 0 min 5,9 C 7,9 C 6,9 km/h (2 Bft)
12.03.2018 18:55 7,9 C 6,8 C 8,8 C 8,4 C 8,4 C 0,5 C 87 % 66 % 996,2 hPa 0,0 l/m 4,8 km/h (1 Bft) SW 225 0 min 5,9 C 8,0 C 6,1 km/h (2 Bft)
12.03.2018 19:00 7,9 C 6,8 C 8,7 C 8,5 C 8,5 C 0,6 C 87 % 67 % 996,2 hPa 0,0 l/m 4,5 km/h (1 Bft) S-SW 202 0 min 5,9 C 8,5 C 6,1 km/h (2 Bft)
12.03.2018 19:05 7,7 C 6,8 C 8,6 C 8,8 C 8,8 C 1,1 C 87 % 67 % 996,2 hPa 0,7 l/m 3,2 km/h (1 Bft) W-SW 247 0 min 5,7 C 8,8 C 2,3 km/h (1 Bft)
12.03.2018 19:10 7,7 C 6,8 C 8,7 C 8,8 C 8,8 C 1,1 C 87 % 67 % 996,2 hPa 0,0 l/m 2,1 km/h (1 Bft) S 180 0 min 5,7 C 8,8 C 1,9 km/h (1 Bft)
12.03.2018 19:15 7,7 C 6,8 C 8,7 C 8,8 C 8,8 C 1,1 C 87 % 67 % 996,5 hPa 0,0 l/m 1,8 km/h (1 Bft) S 180 0 min 5,7 C 8,8 C 3,9 km/h (1 Bft)
12.03.2018 19:20 7,6 C 6,8 C 8,7 C 8,7 C 8,7 C 1,1 C 87 % 67 % 996,5 hPa 0,0 l/m 1,6 km/h (1 Bft) W-NW 292 0 min 5,6 C 8,7 C 0,0 km/h (0 Bft)
12.03.2018 19:25 7,6 C 6,8 C 8,5 C 8,7 C 8,7 C 1,1 C 88 % 67 % 996,5 hPa 0,0 l/m 1,8 km/h (1 Bft) W-SW 247 0 min 5,7 C 8,7 C 5,3 km/h (1 Bft)
12.03.2018 19:30 7,7 C 6,8 C 8,5 C 8,7 C 8,7 C 1,0 C 88 % 67 % 996,5 hPa 0,0 l/m 1,9 km/h (1 Bft) S 180 0 min 5,8 C 8,7 C 2,1 km/h (1 Bft)
12.03.2018 19:35 7,6 C 6,7 C 8,4 C 8,6 C 8,6 C 1,0 C 88 % 67 % 996,2 hPa 0,0 l/m 2,4 km/h (1 Bft) SW 225 0 min 5,7 C 8,6 C 2,9 km/h (1 Bft)
12.03.2018 19:40 7,6 C 6,7 C 8,4 C 8,5 C 8,5 C 0,9 C 88 % 66 % 996,2 hPa 0,0 l/m 2,1 km/h (1 Bft) SW 225 0 min 5,7 C 8,5 C 5,8 km/h (2 Bft)
12.03.2018 19:45 7,6 C 6,7 C 8,4 C 8,5 C 8,5 C 0,9 C 88 % 66 % 996,2 hPa 0,0 l/m 3,1 km/h (1 Bft) W-SW 247 0 min 5,7 C 8,5 C 5,6 km/h (1 Bft)
12.03.2018 19:50 7,5 C 6,7 C 8,4 C 8,5 C 8,5 C 1,0 C 88 % 66 % 996,2 hPa 0,0 l/m 3,2 km/h (1 Bft) SO 135 0 min 5,6 C 8,5 C 2,7 km/h (1 Bft)
12.03.2018 19:55 7,5 C 6,7 C 8,3 C 8,5 C 8,5 C 1,0 C 88 % 66 % 996,3 hPa 0,0 l/m 1,9 km/h (1 Bft) O-NO 67 0 min 5,6 C 8,5 C 0,0 km/h (0 Bft)
12.03.2018 20:00 7,5 C 6,7 C 8,3 C 8,4 C 8,4 C 0,9 C 88 % 66 % 996,3 hPa 0,0 l/m 1,4 km/h (1 Bft) O-NO 67 0 min 5,6 C 8,4 C 3,4 km/h (1 Bft)
12.03.2018 20:05 7,5 C 6,6 C 8,3 C 8,3 C 8,3 C 0,8 C 88 % 66 % 996,3 hPa 0,0 l/m 2,3 km/h (1 Bft) SW 225 0 min 5,6 C 8,3 C 4,3 km/h (1 Bft)
12.03.2018 20:10 7,5 C 6,6 C 8,3 C 8,3 C 8,3 C 0,8 C 88 % 67 % 996,3 hPa 0,0 l/m 2,3 km/h (1 Bft) SO 135 0 min 5,6 C 8,3 C 0,0 km/h (0 Bft)
12.03.2018 20:15 7,3 C 6,6 C 8,3 C 8,2 C 8,2 C 0,9 C 88 % 67 % 996,4 hPa 0,0 l/m 1,8 km/h (1 Bft) SW 225 0 min 5,4 C 8,2 C 5,3 km/h (1 Bft)
12.03.2018 20:20 7,3 C 6,6 C 8,1 C 8,1 C 8,1 C 0,8 C 88 % 66 % 996,4 hPa 0,0 l/m 2,4 km/h (1 Bft) S 180 0 min 5,4 C 8,1 C 5,5 km/h (1 Bft)
12.03.2018 20:25 7,3 C 6,6 C 8,0 C 8,0 C 8,0 C 0,7 C 88 % 66 % 996,4 hPa 0,0 l/m 3,4 km/h (1 Bft) SW 225 0 min 5,4 C 8,0 C 10,5 km/h (2 Bft)
12.03.2018 20:30 7,2 C 6,6 C 7,9 C 7,8 C 7,8 C 0,6 C 88 % 66 % 996,4 hPa 0,0 l/m 4,2 km/h (1 Bft) SW 225 0 min 5,3 C 7,8 C 7,9 km/h (2 Bft)
12.03.2018 20:35 7,2 C 6,5 C 7,9 C 7,2 C 7,1 C 0,0 C 88 % 66 % 996,6 hPa 0,0 l/m 5,8 km/h (2 Bft) W-SW 247 0 min 5,3 C 6,2 C 8,0 km/h (2 Bft)
12.03.2018 20:40 7,3 C 6,5 C 7,9 C 7,1 C 6,8 C 0,0 C 88 % 66 % 996,6 hPa 0,0 l/m 6,8 km/h (2 Bft) S-SO 157 0 min 5,4 C 5,6 C 11,9 km/h (2 Bft)
12.03.2018 20:45 7,4 C 6,5 C 7,9 C 7,3 C 6,7 C 0,0 C 87 % 66 % 996,6 hPa 0,0 l/m 7,9 km/h (2 Bft) W-SW 247 0 min 5,4 C 5,2 C 7,1 km/h (2 Bft)
12.03.2018 20:50 7,5 C 6,5 C 7,8 C 7,3 C 6,8 C 0,0 C 87 % 66 % 996,6 hPa 0,0 l/m 7,4 km/h (2 Bft) SW 225 0 min 5,5 C 5,4 C 8,0 km/h (2 Bft)
12.03.2018 20:55 7,5 C 6,5 C 7,9 C 7,3 C 6,8 C 0,0 C 87 % 66 % 997,0 hPa 0,0 l/m 6,6 km/h (2 Bft) S-SO 157 0 min 5,5 C 5,6 C 5,8 km/h (2 Bft)
12.03.2018 21:00 7,5 C 6,5 C 7,9 C 7,3 C 6,8 C 0,0 C 87 % 66 % 997,0 hPa 0,0 l/m 6,6 km/h (2 Bft) SO 135 0 min 5,5 C 5,6 C 7,4 km/h (2 Bft)
12.03.2018 21:05 7,5 C 6,5 C 7,8 C 7,2 C 6,7 C 0,0 C 87 % 66 % 997,0 hPa 0,0 l/m 7,1 km/h (2 Bft) SW 225 0 min 5,5 C 5,4 C 7,9 km/h (2 Bft)
12.03.2018 21:10 7,6 C 6,5 C 7,8 C 7,3 C 6,7 C 0,0 C 87 % 67 % 997,0 hPa 0,0 l/m 7,2 km/h (2 Bft) W 270 0 min 5,6 C 5,3 C 8,5 km/h (2 Bft)
12.03.2018 21:15 7,6 C 6,3 C 7,7 C 7,3 C 6,6 C 0,0 C 87 % 67 % 997,1 hPa 0,0 l/m 7,6 km/h (2 Bft) S 180 0 min 5,6 C 5,1 C 6,8 km/h (2 Bft)
12.03.2018 21:20 7,6 C 6,5 C 7,7 C 7,3 C 6,7 C 0,0 C 87 % 67 % 997,1 hPa 0,0 l/m 7,4 km/h (2 Bft) SW 225 0 min 5,6 C 5,3 C 10,5 km/h (2 Bft)
12.03.2018 21:25 7,7 C 6,3 C 7,6 C 7,4 C 6,9 C 0,0 C 87 % 67 % 997,1 hPa 0,0 l/m 6,1 km/h (2 Bft) SW 225 0 min 5,7 C 5,9 C 6,9 km/h (2 Bft)
12.03.2018 21:30 7,7 C 6,5 C 7,6 C 7,4 C 6,8 C 0,0 C 87 % 67 % 997,1 hPa 0,0 l/m 6,3 km/h (2 Bft) SW 225 0 min 5,7 C 5,7 C 6,4 km/h (2 Bft)
12.03.2018 21:35 7,7 C 6,5 C 7,6 C 7,4 C 6,8 C 0,0 C 86 % 67 % 997,1 hPa 0,0 l/m 5,6 km/h (1 Bft) SW 225 0 min 5,5 C 5,9 C 7,9 km/h (2 Bft)
12.03.2018 21:40 7,7 C 6,3 C 7,5 C 7,4 C 6,7 C 0,0 C 86 % 67 % 997,1 hPa 0,0 l/m 6,1 km/h (2 Bft) W-NW 292 0 min 5,5 C 5,6 C 13,7 km/h (3 Bft)
12.03.2018 21:45 7,9 C 6,3 C 7,6 C 7,4 C 6,5 C 0,0 C 86 % 67 % 997,1 hPa 0,0 l/m 7,2 km/h (2 Bft) S 180 0 min 5,7 C 5,1 C 10,8 km/h (2 Bft)
12.03.2018 21:50 7,9 C 6,3 C 7,6 C 7,5 C 6,6 C 0,0 C 86 % 67 % 997,1 hPa 0,0 l/m 6,9 km/h (2 Bft) W 270 0 min 5,7 C 5,3 C 6,4 km/h (2 Bft)
12.03.2018 21:55 7,9 C 6,3 C 7,6 C 7,6 C 7,0 C 0,0 C 86 % 67 % 997,2 hPa 0,0 l/m 5,5 km/h (1 Bft) W-SW 247 0 min 5,7 C 6,2 C 7,6 km/h (2 Bft)
12.03.2018 22:00 7,9 C 6,3 C 7,6 C 7,6 C 7,1 C 0,0 C 86 % 67 % 997,2 hPa 0,0 l/m 4,8 km/h (1 Bft) SW 225 0 min 5,7 C 6,5 C 4,8 km/h (1 Bft)
12.03.2018 22:05 8,0 C 6,3 C 7,6 C 7,7 C 7,2 C 0,0 C 86 % 67 % 997,2 hPa 0,0 l/m 4,7 km/h (1 Bft) SO 135 0 min 5,8 C 6,7 C 6,3 km/h (2 Bft)
12.03.2018 22:10 8,0 C 6,3 C 7,6 C 7,7 C 7,1 C 0,0 C 86 % 67 % 997,2 hPa 0,0 l/m 5,0 km/h (1 Bft) S-SW 202 0 min 5,8 C 6,5 C 6,9 km/h (2 Bft)
12.03.2018 22:15 8,0 C 6,2 C 7,7 C 7,8 C 7,4 C 0,0 C 86 % 67 % 997,6 hPa 0,0 l/m 4,3 km/h (1 Bft) S 180 0 min 5,8 C 7,4 C 2,9 km/h (1 Bft)
12.03.2018 22:20 8,1 C 6,2 C 7,7 C 7,9 C 7,4 C 0,0 C 86 % 67 % 997,6 hPa 0,0 l/m 4,3 km/h (1 Bft) O 90 0 min 5,9 C 7,4 C 9,5 km/h (2 Bft)
12.03.2018 22:25 8,1 C 6,2 C 7,7 C 7,9 C 7,4 C 0,0 C 86 % 67 % 997,6 hPa 0,0 l/m 4,5 km/h (1 Bft) NO 45 0 min 5,9 C 7,4 C 5,0 km/h (1 Bft)
12.03.2018 22:30 8,1 C 6,2 C 7,7 C 7,8 C 7,3 C 0,0 C 86 % 67 % 997,6 hPa 0,0 l/m 5,0 km/h (1 Bft) S 180 0 min 5,9 C 6,7 C 4,0 km/h (1 Bft)
12.03.2018 22:35 8,1 C 6,2 C 7,7 C 7,9 C 7,4 C 0,0 C 86 % 67 % 997,8 hPa 0,0 l/m 4,7 km/h (1 Bft) SW 225 0 min 5,9 C 6,9 C 6,1 km/h (2 Bft)
12.03.2018 22:40 8,1 C 6,2 C 7,7 C 7,8 C 7,3 C 0,0 C 86 % 67 % 997,8 hPa 0,0 l/m 5,0 km/h (1 Bft) S-SO 157 0 min 5,9 C 6,7 C 6,6 km/h (2 Bft)
12.03.2018 22:45 8,1 C 6,2 C 7,7 C 7,9 C 7,4 C 0,0 C 86 % 67 % 997,8 hPa 0,0 l/m 4,7 km/h (1 Bft) O 90 0 min 5,9 C 6,9 C 2,4 km/h (1 Bft)
12.03.2018 22:50 8,1 C 6,2 C 7,7 C 7,9 C 7,5 C 0,0 C 86 % 67 % 997,8 hPa 0,0 l/m 4,2 km/h (1 Bft) S 180 0 min 5,9 C 7,5 C 3,2 km/h (1 Bft)
12.03.2018 22:55 8,0 C 6,2 C 7,7 C 7,9 C 7,6 C 0,0 C 86 % 67 % 997,9 hPa 0,0 l/m 3,9 km/h (1 Bft) W 270 0 min 5,8 C 7,6 C 3,5 km/h (1 Bft)
12.03.2018 23:00 8,0 C 6,2 C 7,7 C 7,8 C 7,3 C 0,0 C 86 % 67 % 997,9 hPa 0,0 l/m 4,5 km/h (1 Bft) O-SO 112 0 min 5,8 C 7,3 C 10,1 km/h (2 Bft)
12.03.2018 23:05 8,0 C 6,2 C 7,7 C 7,7 C 7,1 C 0,0 C 86 % 67 % 997,9 hPa 0,0 l/m 5,3 km/h (1 Bft) S 180 0 min 5,8 C 6,4 C 6,6 km/h (2 Bft)
12.03.2018 23:10 8,0 C 6,2 C 7,7 C 7,7 C 7,2 C 0,0 C 86 % 67 % 997,9 hPa 0,0 l/m 5,0 km/h (1 Bft) SW 225 0 min 5,8 C 6,6 C 10,3 km/h (2 Bft)
12.03.2018 23:15 7,9 C 6,2 C 7,7 C 7,7 C 7,4 C 0,0 C 86 % 67 % 997,9 hPa 0,0 l/m 4,0 km/h (1 Bft) N-NO 22 0 min 5,7 C 7,4 C 6,8 km/h (2 Bft)
12.03.2018 23:20 7,9 C 6,2 C 7,7 C 7,7 C 7,2 C 0,0 C 86 % 67 % 997,9 hPa 0,0 l/m 4,3 km/h (1 Bft) O 90 0 min 5,7 C 7,2 C 3,1 km/h (1 Bft)
12.03.2018 23:25 7,9 C 6,1 C 7,7 C 7,7 C 7,4 C 0,0 C 86 % 67 % 997,9 hPa 0,0 l/m 3,7 km/h (1 Bft) N-NO 22 0 min 5,7 C 7,4 C 3,9 km/h (1 Bft)
12.03.2018 23:30 7,8 C 6,1 C 7,7 C 7,6 C 7,3 C 0,0 C 86 % 67 % 997,9 hPa 0,0 l/m 2,7 km/h (1 Bft) O 90 0 min 5,6 C 7,3 C 4,0 km/h (1 Bft)
12.03.2018 23:35 7,7 C 6,2 C 7,7 C 7,6 C 7,3 C 0,0 C 86 % 67 % 998,1 hPa 0,0 l/m 3,1 km/h (1 Bft) SW 225 0 min 5,5 C 7,3 C 3,7 km/h (1 Bft)
12.03.2018 23:40 7,7 C 6,2 C 7,7 C 7,6 C 7,3 C 0,0 C 86 % 67 % 998,1 hPa 0,0 l/m 3,1 km/h (1 Bft) N 360 0 min 5,5 C 7,3 C 5,8 km/h (2 Bft)
12.03.2018 23:45 7,7 C 6,2 C 7,7 C 7,5 C 7,2 C 0,0 C 86 % 67 % 998,1 hPa 0,0 l/m 3,7 km/h (1 Bft) NW 315 0 min 5,5 C 7,2 C 3,7 km/h (1 Bft)
12.03.2018 23:50 7,7 C 6,2 C 7,7 C 7,5 C 7,0 C 0,0 C 86 % 67 % 998,1 hPa 0,0 l/m 4,0 km/h (1 Bft) SW 225 0 min 5,5 C 7,0 C 7,4 km/h (2 Bft)
12.03.2018 23:55 7,6 C 6,2 C 7,7 C 7,5 C 7,2 C 0,0 C 86 % 67 % 998,1 hPa 0,0 l/m 3,7 km/h (1 Bft) O-NO 67 0 min 5,4 C 7,2 C 4,2 km/h (1 Bft)
_ Min-Zeit 04:00 05:05 03:50 04:00 03:55 00:00 00:05 16:20 10:35 - 00:15 - - - 04:00 03:55 00:05
Minimum _ 4,5 C 4,6 C 4,0 C 4,5 C 4,4 C 0,0 C 74 % 66 % 994,2 hPa - 0,0 km/h (0 Bft) - - - 2,0 C 4,4 C 0,0 km/h (0 Bft)
_ Max-Zeit 00:00 18:50 13:45 13:45 13:45 11:55 16:20 01:55 23:35 08:05 18:10 - - 06:45 13:45 13:45 18:05
Maximum _ 10,1 C 6,8 C 10,5 C 10,6 C 10,6 C 1,9 C 88 % 89 % 998,1 hPa 0,7 l/m 11,3 km/h
W-SW (2 Bft)
- - 5 min 7,1 C 10,6 C 20,6 km/h
SW (4 Bft)
Durchschnitt _ 7,3 C 5,6 C 7,7 C 7,9 C 7,7 C 0,6 C 86 % 76 % 995,4 hPa #15,8 l/m 2,9 km/h (1 Bft) SW - #10 min. 5,1 C 7,5 C 3,8 km/h (1 Bft)
2018 www.wetterstation-wechselburg.de